User: anonymous   Login
Location: Oshawa
(43.9000°N, 78.8670°W)
Time: 13:08:15
(UTC-05:00)
Language:

SPOT 5 - Orbit

View from above orbital plane
View from above orbital plane
View from above satellite
View from above satellite

Ground track
Ground track

The orbit data is extracted from the following two-line orbital elements,

1 27421U 02021A   16343.37961406  .00000064  00000-0  25959-4 0  9998
2 27421  98.4336  40.2072 0134709 192.1166 167.6778 14.51832843757983
Epoch (UTC): 08 December 2016 09:06:38
Eccentricity: 0.0134709
inclination: 98.4336°
perigee height: 624 km
apogee height: 815 km
right ascension of ascending node: 40.2072°
argument of perigee: 192.1166°
revolutions per day: 14.51832843
mean anomaly at epoch: 167.6778°
orbit number at epoch: 75798

The dashed part of the orbit path shows where the satellite is in the earth's shadow,  

DLR